Regional Weather Roundup
Issued by NWS

Home | Current Version | Previous Version | Text Only | Print | Product List | Glossary Off
Versions: 1 2 3 4 5 6 7 8 9 10 11 12 13 14 15 16 17 18 19 20 21 22 23 24 25 26 27 28 29 30 31 32 33 34 35 36 37 38 39 40 41 42 43 44 45 46 47 48 49 50

534
ASUS43 KTOP 242308
RWRKS

WEATHER ROUNDUP FOR KANSAS
NATIONAL WEATHER SERVICE GOODLAND KS
600 PM CDT MON APR 24 2017

NOTE:  "FAIR" INDICATES FEW OR NO CLOUDS BELOW 12,000 FEET WITH NO
SIGNIFICANT WEATHER AND/OR OBSTRUCTIONS TO VISIBILITY.

KSZ001>006-013>018-027>032-041>047-250000-
NORTHWEST KANSAS

CITY           SKY/WX    TMP DP  RH WIND       PRES   REMARKS
GOODLAND       SUNNY     72  40  31 E7        29.55F
HAYS           SUNNY     79  44  28 NW5       29.51S
HILL CITY      SUNNY     80  42  25 N5        29.50S
RUSSELL        CLOUDY    80  45  28 W9        29.49S
$$

KSZ061>065-074>080-084>089-250000-
SOUTHWEST KANSAS

CITY           SKY/WX    TMP DP  RH WIND       PRES   REMARKS
DODGE CITY     CLOUDY    82  40  22 NE6       29.52F
ELKHART          N/A     79  39  23 E15         N/A
GARDEN CITY    SUNNY     80  37  21 E13       29.51F
GREAT BEND     CLOUDY    79  51  37 W7        29.51S
PRATT          CLOUDY    75  47  37 S17G24    29.52F
$$

KSZ066>073-081>083-090>101-250000-
SOUTHEAST KANSAS

CITY           SKY/WX    TMP DP  RH WIND       PRES   REMARKS
CHANUTE        SUNNY     73  46  38 S23G31    29.61F
COFFEYVILLE    SUNNY     73  46  38 S13G29    29.63F
HUTCHINSON     CLOUDY    76  51  41 S20       29.53F
MEDICINE LODGE   N/A     75  50  41 S13G21    29.52S
NEWTON         CLOUDY    72  53  51 S17       29.57R
PARSONS        SUNNY     73  44  35 S17G26    29.63F
WICHITA INTL   CLOUDY    72  52  49 S18       29.57R
WICHITA JABRA  CLOUDY    73  49  42 S22G29    29.57S
WICHITA MCCONL CLOUDY    73  48  41 S20G26    29.57F
WINFIELD       CLOUDY    72  48  42 S20G25    29.59F
$$

KSZ007>012-019>026-033>040-048>060-102>105-250000-
NORTHEAST KANSAS

CITY           SKY/WX    TMP DP  RH WIND       PRES   REMARKS
CONCORDIA      SUNNY     73  51  46 S20G26    29.47F
EMPORIA        CLOUDY    73  46  38 S18G35    29.58F
LAWRENCE       SUNNY     74  42  31 SE20G29   29.60F
MANHATTAN      SUNNY     74  49  41 SW16G25   29.53F
MARYSVILLE     SUNNY     73  46  38 S16G28    29.52F
OLATHE IND     SUNNY     73  40  30 S18G26    29.62R
OLATHE EXE     SUNNY     72  39  30 S15G29    29.62S
SALINA         CLOUDY    76  52  43 S18G28    29.50F
TOPEKA BILLARD SUNNY     73  44  35 S16G30    29.58F
TOPEKA FORBES  SUNNY     74  45  35 S21G29    29.58F
$$




USA.gov is the U.S. government's official web portal to all federal, state and local government web resources and services.